Starlink 32415

operational
NORAD ID: 61861 Int'l Des: 2024-202 Owner: SPXS Country: US Constellation: starlink
LEOCIRCULAR

Über Starlink 32415

Beschreibung wird geladen...

Live-Position

3D-Globus wird geladen...

Nächste Überflüge

Höhenverlauf

Altitude vs Time

uPlot chart will show altitude changes over time

Zweizeiliger Elementsatz

1 61861U 24202S 26036.10981663 -.00001054 00000-0 -28813-4 0 9991
2 61861 43.0034 62.0957 0001039 263.0565 97.0168 15.27565978 70347
Epoch: 5. Feb. 2026 • Age: 9 hours

Aktueller Status

Höhe 494.2 km
Geschwindigkeit 7.62 km/s
Subsatellitenpunkt -39.21°S, 47.5°E
Startdatum 7. Nov. 2024
Alter 1.2 years
Typ internet

Technische Details

Klassifizierung Payload
Masse 730.00 kg
Trockenmasse 700.00 kg
Gesamtmasse 730.00 kg
Länge 0.30 m
Durchmesser 4.10 m
Spannweite 29.00 m
Form Box + pan
Hersteller SPXS
Bus-Typ Starlink V2M
Phasenstatus In Orbit
Besitzer/Staat SPXS/US

Große Konstellationen

Loading constellations...